When you browse on this site, cookies collect data to enhance your experience and personalize the content and advertising you see.
Visit our Privacy Policy to learn more. By continuing to use the site, you agree to this use of cookies and data.
  • In Hungary
  • List of Countries
  • For 7 days
  • Water Temperature
  • Weather Map
  • News
  • Weather Widgets
  • user-avatar
    Login

    Hourly Weather Klevcy

    Today, 16 September, Monday

    Time Temperature Precipitation Wind Pressure Humidity
    00:00 +10°C° 0.3 mm 6 mps 731 mmHg 84%
    01:00 +10°C° 0.3 mm 6 mps 731 mmHg 88%
    02:00 +10°C° 0 mm 5 mps 730 mmHg 88%
    03:00 +9°C° 0.2 mm 5 mps 730 mmHg 89%
    04:00 +9°C° 0.2 mm 5 mps 729 mmHg 91%
    05:00 +9°C° 0.2 mm 5 mps 729 mmHg 93%
    06:00 +9°C° 0.2 mm 5 mps 729 mmHg 90%
    07:00 +9°C° 0.2 mm 5 mps 729 mmHg 88%
    08:00 +9°C° 0.2 mm 5 mps 729 mmHg 85%
    09:00 +9°C° 0.2 mm 6 mps 729 mmHg 84%
    10:00 +10°C° 0.2 mm 6 mps 729 mmHg 83%
    11:00 +10°C° 0.2 mm 6 mps 729 mmHg 81%
    12:00 +11°C° 0.3 mm 6 mps 729 mmHg 79%
    13:00 +11°C° 0.3 mm 6 mps 729 mmHg 76%
    14:00 +12°C° 0.3 mm 7 mps 729 mmHg 74%
    15:00 +11°C° 0.3 mm 6 mps 729 mmHg 76%
    16:00 +11°C° 0.3 mm 6 mps 729 mmHg 79%
    17:00 +10°C° 0.3 mm 5 mps 729 mmHg 82%
    18:00 +9°C° 0.2 mm 5 mps 729 mmHg 85%
    19:00 +9°C° 0.2 mm 5 mps 729 mmHg 88%
    20:00 +8°C° 0.2 mm 4 mps 729 mmHg 90%
    21:00 +8°C° 0 mm 4 mps 729 mmHg 89%
    22:00 +7°C° 0 mm 4 mps 729 mmHg 88%
    23:00 +7°C° 0 mm 4 mps 729 mmHg 87%

    Tomorrow, 17 September, Tuesday

    Time Temperature Precipitation Wind Pressure Humidity
    00:00 +7°C° 0 mm 4 mps 729 mmHg 88%
    01:00 +7°C° 0 mm 4 mps 729 mmHg 89%
    02:00 +7°C° 0 mm 4 mps 729 mmHg 89%
    03:00 +6°C° 0 mm 4 mps 729 mmHg 90%
    04:00 +5°C° 0 mm 4 mps 728 mmHg 90%
    05:00 +5°C° 0 mm 4 mps 728 mmHg 91%
    06:00 +6°C° 0 mm 4 mps 728 mmHg 87%
    07:00 +6°C° 0 mm 5 mps 729 mmHg 83%
    08:00 +7°C° 0 mm 5 mps 729 mmHg 79%
    09:00 +8°C° 0.1 mm 5 mps 729 mmHg 74%
    10:00 +9°C° 0.1 mm 5 mps 729 mmHg 70%
    11:00 +10°C° 0.1 mm 5 mps 729 mmHg 65%
    12:00 +10°C° 0.1 mm 5 mps 729 mmHg 69%
    13:00 +9°C° 0.1 mm 5 mps 729 mmHg 73%
    14:00 +10°C° 0.1 mm 4 mps 729 mmHg 76%
    15:00 +10°C° 0 mm 4 mps 728 mmHg 77%
    16:00 +9°C° 0 mm 3 mps 728 mmHg 79%
    17:00 +9°C° 0 mm 3 mps 728 mmHg 80%
    18:00 +8°C° 0 mm 3 mps 728 mmHg 84%
    19:00 +7°C° 0 mm 2 mps 728 mmHg 88%
    20:00 +6°C° 0 mm 2 mps 728 mmHg 92%
    21:00 +6°C° 0 mm 2 mps 728 mmHg 94%
    22:00 +5°C° 0 mm 2 mps 728 mmHg 95%
    23:00 +5°C° 0 mm 2 mps 728 mmHg 96%

    Day after tomorrow, 18 September, Wednesday

    Time Temperature Precipitation Wind Pressure Humidity
    00:00 +5°C° 0 mm 2 mps 727 mmHg 96%
    01:00 +5°C° 0 mm 1 mps 727 mmHg 96%
    02:00 +5°C° 0 mm 1 mps 727 mmHg 96%
    03:00 +6°C° 0 mm 1 mps 727 mmHg 95%
    04:00 +6°C° 0 mm 1 mps 727 mmHg 94%
    05:00 +6°C° 0 mm 1 mps 726 mmHg 94%
    06:00 +6°C° 0 mm 0 mps 726 mmHg 91%
    07:00 +7°C° 0 mm 0 mps 727 mmHg 88%
    08:00 +8°C° 0 mm 0 mps 727 mmHg 85%
    09:00 +9°C° 0.2 mm 1 mps 727 mmHg 83%
    10:00 +10°C° 0.2 mm 1 mps 727 mmHg 81%
    11:00 +10°C° 0.2 mm 2 mps 727 mmHg 79%
    12:00 +10°C° 0.4 mm 2 mps 728 mmHg 78%
    13:00 +12°C° 0.4 mm 2 mps 728 mmHg 77%
    14:00 +12°C° 0.4 mm 2 mps 728 mmHg 76%
    15:00 +10°C° 0.6 mm 2 mps 729 mmHg 80%
    16:00 +10°C° 0.6 mm 2 mps 729 mmHg 83%
    17:00 +9°C° 0.6 mm 2 mps 729 mmHg 87%
    18:00 +8°C° 0 mm 2 mps 730 mmHg 89%
    19:00 +7°C° 0 mm 2 mps 730 mmHg 91%
    20:00 +5°C° 0 mm 2 mps 731 mmHg 93%
    21:00 +5°C° 0 mm 2 mps 731 mmHg 94%
    22:00 +5°C° 0 mm 2 mps 731 mmHg 95%
    23:00 +4°C° 0 mm 2 mps 732 mmHg 96%

    19 September, Thursday

    Time Temperature Precipitation Wind Pressure Humidity
    00:00 +4°C° 0 mm 2 mps 732 mmHg 97%
    01:00 +4°C° 0 mm 2 mps 733 mmHg 97%
    02:00 +3°C° 0 mm 2 mps 733 mmHg 97%
    03:00 +3°C° 0 mm 2 mps 734 mmHg 98%
    04:00 +3°C° 0 mm 2 mps 734 mmHg 98%
    05:00 +3°C° 0 mm 2 mps 734 mmHg 98%
    06:00 +3°C° 0 mm 2 mps 735 mmHg 96%
    07:00 +4°C° 0 mm 2 mps 735 mmHg 94%
    08:00 +5°C° 0 mm 2 mps 736 mmHg 92%
    09:00 +6°C° 0.1 mm 2 mps 736 mmHg 86%
    10:00 +7°C° 0.1 mm 2 mps 737 mmHg 79%
    11:00 +8°C° 0.1 mm 2 mps 737 mmHg 73%
    12:00 +9°C° 0.1 mm 3 mps 737 mmHg 68%
    13:00 +9°C° 0.1 mm 3 mps 738 mmHg 63%
    14:00 +10°C° 0.1 mm 3 mps 738 mmHg 58%
    15:00 +9°C° 0.1 mm 2 mps 738 mmHg 64%
    16:00 +8°C° 0.1 mm 2 mps 738 mmHg 70%
    17:00 +9°C° 0.1 mm 1 mps 738 mmHg 75%
    18:00 +7°C° 0 mm 1 mps 738 mmHg 81%
    19:00 +6°C° 0 mm 1 mps 739 mmHg 86%
    20:00 +4°C° 0 mm 1 mps 739 mmHg 92%
    21:00 +4°C° 0 mm 1 mps 739 mmHg 92%
    22:00 +4°C° 0 mm 1 mps 740 mmHg 92%
    23:00 +4°C° 0 mm 1 mps 740 mmHg 93%

    20 September, Friday

    Time Temperature Precipitation Wind Pressure Humidity
    00:00 +3°C° 0 mm 1 mps 740 mmHg 93%
    01:00 +3°C° 0 mm 1 mps 740 mmHg 94%
    02:00 +2°C° 0 mm 1 mps 740 mmHg 95%
    03:00 +2°C° 0 mm 1 mps 740 mmHg 95%
    04:00 +1°C° 0 mm 1 mps 740 mmHg 96%
    05:00 -1°C° 0 mm 2 mps 740 mmHg 97%
    06:00 +1°C° 0 mm 2 mps 741 mmHg 92%
    07:00 +2°C° 0 mm 2 mps 741 mmHg 88%
    08:00 +4°C° 0 mm 2 mps 741 mmHg 83%
    09:00 +5°C° 0 mm 2 mps 741 mmHg 74%
    10:00 +6°C° 0 mm 2 mps 742 mmHg 64%
    11:00 +8°C° 0 mm 3 mps 742 mmHg 55%
    12:00 +8°C° 0 mm 3 mps 742 mmHg 53%
    13:00 +8°C° 0 mm 3 mps 742 mmHg 50%
    14:00 +9°C° 0 mm 3 mps 742 mmHg 48%
    15:00 +8°C° 0.2 mm 3 mps 742 mmHg 58%
    16:00 +7°C° 0.2 mm 3 mps 742 mmHg 68%
    17:00 +5°C° 0.2 mm 3 mps 742 mmHg 78%
    18:00 +4°C° 0 mm 2 mps 742 mmHg 83%
    19:00 +3°C° 0 mm 2 mps 742 mmHg 89%
    20:00 +2°C° 0 mm 2 mps 743 mmHg 94%
    21:00 +1°C° 0 mm 2 mps 743 mmHg 94%
    22:00 +2°C° 0 mm 1 mps 743 mmHg 94%
    23:00 +1°C° 0 mm 1 mps 743 mmHg 93%

    21 September, Saturday

    Time Temperature Precipitation Wind Pressure Humidity
    00:00 +1°C° 0 mm 1 mps 743 mmHg 93%
    01:00 +1°C° 0 mm 1 mps 743 mmHg 93%
    02:00 0°C° 0 mm 1 mps 743 mmHg 92%
    03:00 0°C° 0 mm 1 mps 743 mmHg 93%
    04:00 0°C° 0 mm 1 mps 743 mmHg 93%
    05:00 0°C° 0 mm 1 mps 743 mmHg 94%
    06:00 +1°C° 0 mm 1 mps 744 mmHg 90%
    07:00 +3°C° 0 mm 1 mps 744 mmHg 85%
    08:00 +4°C° 0 mm 1 mps 745 mmHg 81%
    09:00 +6°C° 0 mm 1 mps 745 mmHg 71%
    10:00 +7°C° 0 mm 2 mps 745 mmHg 62%
    11:00 +8°C° 0 mm 2 mps 745 mmHg 52%
    12:00 +9°C° 0 mm 2 mps 745 mmHg 50%
    13:00 +9°C° 0 mm 2 mps 745 mmHg 48%
    14:00 +9°C° 0 mm 2 mps 745 mmHg 45%
    15:00 +9°C° 0 mm 2 mps 745 mmHg 51%
    16:00 +9°C° 0 mm 1 mps 745 mmHg 57%
    17:00 +8°C° 0 mm 1 mps 745 mmHg 63%
    18:00 +6°C° 0 mm 1 mps 745 mmHg 66%
    19:00 +5°C° 0 mm 1 mps 745 mmHg 70%
    20:00 +4°C° 0 mm 1 mps 745 mmHg 74%
    21:00 +4°C° 0 mm 1 mps 745 mmHg 74%
    22:00 +3°C° 0 mm 2 mps 745 mmHg 74%
    23:00 +3°C° 0 mm 2 mps 745 mmHg 74%
    Show more